User: anonymous   Login
Location: Alexandria
(38.8050°N, 77.0470°W)
Time: 17:28:08
(UTC-04:00)
Language:

KAITUO 1B - Orbit

View from above orbital plane
View from above orbital plane
View from above satellite
View from above satellite

Ground track
Ground track

The orbit data is extracted from the following two-line orbital elements,

1 40912U 15049P   18196.49494801  .00001049  00000-0  53557-4 0  9992
2 40912  97.4497 203.4223 0013510 273.8751 238.1278 15.18830022155964
Epoch (UTC): 15 July 2018 11:52:43
Eccentricity: 0.0013510
inclination: 97.4497°
perigee height: 500 km
apogee height: 518 km
right ascension of ascending node: 203.4223°
argument of perigee: 273.8751°
revolutions per day: 15.18830022
mean anomaly at epoch: 238.1278°
orbit number at epoch: 15596

The dashed part of the orbit path shows where the satellite is in the earth's shadow,  

DLR